Regional Weather Roundup
Issued by NWS Cleveland, OH

Home | Current Version | Previous Version | Graphics & Text | Print | Product List | Glossary On
Versions: 1 2 3 4 5 6 7 8 9 10 11 12 13 14 15 16 17 18 19 20 21 22 23 24 25 26 27 28 29 30 31 32 33 34 35 36 37 38 39 40 41 42 43 44 45 46 47 48 49 50
000
ASUS41 KCLE 270310
RWRCLE
OHIO REGIONAL WEATHER ROUNDUP
NATIONAL WEATHER SERVICE CLEVELAND, OH
1100 PM EDT THU MAY 26 2016

NOTE: "FAIR" INDICATES FEW OR NO CLOUDS BELOW 12,000 FEET WITH NO
SIGNIFICANT WEATHER AND/OR OBSTRUCTIONS TO VISIBILITY.

OHZ001>008-015>018-024>027-034-035-043-044-270400-
   NORTHWEST OHIO

CITY           SKY/WX    TMP DP  RH WIND       PRES   REMARKS
DEFIANCE       PTCLDY    75  61  61 SW7       29.96R
FINDLAY        CLEAR     74  64  71 S10       29.96R
TOLEDO EXPRESS PTCLDY    75  65  70 SW6       29.95R
TOLEDO EXEC    CLEAR     75  65  70 S6        29.96R
LIMA           PTCLDY    71  63  75 S10       29.99R
$$

OHZ009>014-019>023-028>033-038-089-270400-
   NORTHEAST OHIO

CITY           SKY/WX    TMP DP  RH WIND       PRES   REMARKS
CLE-HOPKINS    CLOUDY    77  65  66 S9        30.00R
CLE-LAKEFRONT  CLOUDY    78  65  63 S10       29.96R
CUY CO. ARPT   CLOUDY    77  68  73 S12       29.99R
LORAIN-ELYRIA  CLOUDY    74  64  71 S7        29.99R
ASHTABULA      CLOUDY    72  63  73 S7        29.99R
AKRON-CANTON   PTCLDY    72  65  78 S9        30.02R
WOOSTER        MOCLDY    71  65  81 S9        30.02R
MANSFIELD      CLOUDY    73  66  78 S16G23    30.02R
YOUNGSTOWN     MOCLDY    71  63  75 S6        30.01R
$$

OHZ042-051>053-060>062-070>072-077>081-270400-
  SOUTHWEST OHIO

CITY           SKY/WX    TMP DP  RH WIND       PRES   REMARKS
CINC-COVINGTON CLOUDY    66  64  93 S7        30.02R
CINC-LUNKEN    CLOUDY    65  65 100 CALM      30.03R
HAMILTON       MOCLDY    68  63  84 SW3       30.02R
DAYTON         CLOUDY    68  63  84 S7        30.03R
WRIGHT-PAT AFB CLOUDY    69  64  85 S6        30.02R
DAYTON GENERAL CLOUDY    66  62  87 S7        30.02R
WILMINGTON     PTCLDY    66  63  90 S7        30.04R
$$

OHZ036-037-039>041-045>050-054>059-063>069-073>076-082>088-270400-
  CENTRAL AND SOUTHEAST OHIO

CITY           SKY/WX    TMP DP  RH WIND       PRES   REMARKS
COLUMBUS       CLOUDY    72  66  81 S5        30.03R
OSU AIRPORT    CLOUDY    72  66  81 S7        30.03R
BOLTON FIELD   CLOUDY    70  67  89 SW6       30.04R
RICKENBACK AFB CLOUDY    69  65  88 S3        30.02R
NEWARK         MOCLDY    73  66  78 S5        30.02R
MARION         MOCLDY    74  65  73 SW14G21   30.02R
LANCASTER      CLOUDY    71  65  81 S5        30.04R
ZANESVILLE     MOCLDY    73  65  75 S5        30.03R
NEW PHILLY     MOCLDY    74  65  73 S5        30.03R
$$



USA.gov is the U.S. government's official web portal to all federal, state and local government web resources and services.